Regional Weather Roundup
Issued by NWS

Home | Current Version | Previous Version | Graphics & Text | Print | Product List | Glossary On
Versions: 1 2 3 4 5 6 7 8 9 10 11 12 13 14 15 16 17 18 19 20 21 22 23 24 25 26 27 28 29 30 31 32 33 34 35 36 37 38 39 40 41 42 43 44 45 46 47 48 49 50
000
ASUS43 KOAX 170402
RWRNE

WEATHER ROUNDUP FOR NEBRASKA
NATIONAL WEATHER SERVICE OMAHA NE
1000 PM CST TUE JAN 16 2018

NOTES: SATELLITE DATA IS BEING USED TO AUGMENT CLOUD COVER ABOVE
       12000 FEET.
       "FAIR" INDICATES FEW OR NO CLOUDS BELOW 12,000 FEET WITH NO
       SIGNIFICANT WEATHER AND/OR OBSTRUCTIONS TO VISIBILITY.


NEZ001>004-019>022-054>056-170500-
NEBRASKA PANHANDLE

CITY           SKY/WX    TMP DP  RH WIND       PRES   REMARKS
SCOTTSBLUFF    CLEAR     10   3  73 E5        30.27F WCI   2
ALLIANCE       CLEAR      8   1  73 S12       30.26F WCI  -7
CHADRON        CLEAR      9   3  77 SW3       30.26F
GORDON         FAIR      16   4  57 W7        30.26F WCI   7
KIMBALL        CLEAR     13   4  68 SW6       30.26F WCI   4
SIDNEY         CLEAR     12   3  67 SW10      30.29F WCI  -1
$$

NEZ057>060-069>072-079>082-170500-
SOUTHWEST NEBRASKA

CITY           SKY/WX    TMP DP  RH WIND       PRES   REMARKS
NORTH PLATTE   CLEAR     10  -1  61 CALM      30.43F
IMPERIAL       CLEAR      7  -2  66 S6        30.39F WCI  -3
LEXINGTON      CLEAR      8   2  73 S7        30.49F WCI  -3
MCCOOK         CLEAR      7  -1  70 S6        30.48F WCI  -3
OGALLALA       CLEAR     15   3  59 SW6       30.38F WCI   7
$$

NEZ005>010-023>029-035>040-094-170500-
NORTH CENTRAL NEBRASKA

CITY           SKY/WX    TMP DP  RH WIND       PRES   REMARKS
VALENTINE      CLEAR     10   0  63 SW7       30.35F WCI  -1
AINSWORTH      CLEAR     10   1  69 SW15      30.38S WCI  -7
BROKEN BOW     CLEAR      1  -5  75 S5        30.46F WCI  -9
O`NEILL        CLEAR      5  -1  77 S7        30.47F WCI  -7
ORD            CLEAR      4  -2  76 CALM      30.50F
THEDFORD       CLEAR     12   0  57 SW12G18   30.39S WCI  -2
$$

NEZ041-046>049-061>064-073>077-083>087-170500-
SOUTH CENTRAL NEBRASKA

CITY           SKY/WX    TMP DP  RH WIND       PRES   REMARKS
GRAND ISLAND   CLOUDY     4   0  83 S10       30.57F WCI -11
AURORA         CLOUDY     2  -3  80 S7        30.58S WCI -10
HASTINGS       CLOUDY     4  -2  76 S8        30.57F WCI  -9
HEBRON         CLOUDY    -3  -6  85 CALM      30.65F
HOLDREGE       CLOUDY     6  -1  75 CALM      30.53S
KEARNEY        CLOUDY     1  -4  79 S7        30.55F WCI -12
YORK           CLOUDY     1   0  92 CALM      30.60F
$$

NEZ011>018-030>034-042>045-170500-
NORTHEAST NEBRASKA

CITY           SKY/WX    TMP DP  RH WIND       PRES   REMARKS
NORFOLK        CLOUDY     4  -1  80 S12       30.55F WCI -12
ALBION         CLOUDY     4  -1  78 CALM      30.55F
BLAIR          CLOUDY     3   0  85 S3        30.62F
COLUMBUS       CLOUDY     5   0  79 S6        30.61F WCI  -6
FREMONT        CLOUDY     2  -1  85 CALM      30.63F
TEKAMAH        CLOUDY    -4  -9  79 S5        30.65F WCI -15
WAYNE          CLOUDY    -1  -5  82 S8        30.57F WCI -15
$$

NEZ050>053-065>068-078-088>093-170500-
SOUTHEAST NEBRASKA

CITY           SKY/WX    TMP DP  RH WIND       PRES   REMARKS
LINCOLN        CLOUDY     4   0  83 CALM      30.66F
OMAHA EPPLEY   CLOUDY     3  -1  83 E5        30.67F WCI  -6
BEATRICE       CLOUDY     2  -1  86 CALM      30.66F
FALLS CITY     CLOUDY     0  -4  83 CALM      30.69F
NEBRASKA CITY  CLOUDY     3   1  91 SW6       30.66F WCI  -8
PLATTSMOUTH    CLOUDY     6   3  86 SW3       30.65F
$$

NEZ044-045-051>053-067-170500-
OMAHA AREA

CITY           SKY/WX    TMP DP  RH WIND       PRES   REMARKS
OMAHA EPPLEY   CLOUDY     3  -1  83 E5        30.67F WCI  -6
BLAIR          CLOUDY     3   0  85 S3        30.62F
FREMONT        CLOUDY     2  -1  85 CALM      30.63F
MILLARD        CLOUDY     5   2  86 CALM      30.66F
OFFUTT AFB     CLOUDY    -4  -9  80 CALM      30.66F
PLATTSMOUTH    CLOUDY     6   3  86 SW3       30.65F
WAHOO          FAIR       3  -2  80 SW5       30.64F WCI  -6
$$




USA.gov is the U.S. government's official web portal to all federal, state and local government web resources and services.